Date String (YYYY-MM-DD hh:mm:ss) UTC,Instrument flags,Ambient pressure (hPa),Sample flow (lpm),Bypass flow (lpm),Sample temperature (°C),Ambient temperature (°C),ASC tube jacket temperature (°C),LED temperature (°C),Box temperature (°C),Sample RH (%),Span deviation,Mass concentration (μg/m³),Mass concentration (μg/m³),Mass concentration (μg/m³)
DateTimeUTC,F1_M11,P_M11,Q1_M11,Q2_M11,T1_M11,T2_M11,T3_M11,T4_M11,T5_M11,U1_M11,ZSPAN_M11,X0_M11,X2_M11,X1_M11
2023-04-04 06:00:00,,0812.6,4.99,0.00,22.3,22.1,00.0,30.5,23.9,17.2,0000.0,0023.54,0005.54,0003.27
2023-04-04 06:01:00,,0812.6,4.99,0.00,22.2,21.8,00.0,30.5,23.8,17.2,0000.0,0025.11,0005.47,0003.27
2023-04-04 06:02:00,,0812.6,5.00,0.00,22.2,21.5,00.0,30.5,23.7,17.3,0000.0,0024.50,0005.37,0003.26
2023-04-04 06:03:00,,0812.6,5.01,0.00,22.2,21.2,00.0,30.5,23.6,17.3,0000.0,0024.97,0005.25,0003.26
2023-04-04 06:04:00,,0812.6,4.99,0.00,22.2,20.9,00.0,30.5,23.6,17.4,0000.0,0025.43,0005.24,0003.26
2023-04-04 06:05:00,,0812.5,5.00,0.00,22.1,20.7,00.0,30.5,23.5,17.5,0000.0,0024.50,0005.26,0003.26
2023-04-04 06:06:00,,0812.5,5.02,0.00,22.1,20.5,00.0,30.5,23.5,17.6,0000.0,0023.41,0005.19,0003.25
2023-04-04 06:07:00,,0812.4,4.99,0.00,22.1,20.4,00.0,30.5,23.4,17.5,0000.0,0023.18,0005.09,0003.23
2023-04-04 06:08:00,,0812.4,5.00,0.00,22.0,20.2,00.0,30.5,23.4,17.3,0000.0,0022.55,0005.05,0003.21
2023-04-04 06:09:00,,0812.5,4.99,0.00,22.0,20.1,00.0,30.5,23.3,17.3,0000.0,0022.66,0005.01,0003.20
2023-04-04 06:10:00,,0812.6,4.99,0.00,22.0,20.0,00.0,30.5,23.3,17.3,0000.0,0024.39,0005.04,0003.20
2023-04-04 06:11:00,,0812.7,5.01,0.00,21.9,19.9,00.0,30.4,23.2,17.3,0000.0,0024.11,0005.00,0003.19
2023-04-04 06:12:00,,0812.7,5.01,0.00,21.9,19.9,00.0,30.4,23.2,17.2,0000.0,0022.55,0005.00,0003.19
2023-04-04 06:13:00,,0812.6,5.00,0.00,21.9,19.9,00.0,30.4,23.3,17.3,0000.0,0022.89,0005.05,0003.20
2023-04-04 06:14:00,,0812.6,5.00,0.00,22.0,20.9,00.0,30.3,23.7,17.2,0000.0,0021.30,0005.02,0003.19
2023-04-04 06:15:00,,0812.6,4.99,0.00,22.1,22.2,00.0,30.3,24.1,17.2,0000.0,0021.12,0004.95,0003.18
2023-04-04 06:16:00,,0812.6,5.01,0.00,22.2,22.9,00.0,30.4,24.3,17.1,0000.0,0021.68,0004.87,0003.17
2023-04-04 06:17:00,,0812.6,5.01,0.00,22.3,22.6,00.0,30.4,24.1,17.0,0000.0,0021.59,0004.86,0003.16
2023-04-04 06:18:00,,0812.5,5.00,0.00,22.3,22.2,00.0,30.5,23.9,16.9,0000.0,0021.66,0004.92,0003.17
2023-04-04 06:19:00,,0812.6,4.99,0.00,22.3,21.8,00.0,30.5,23.8,16.9,0000.0,0021.53,0004.91,0003.17
2023-04-04 06:20:00,,0812.6,5.00,0.00,22.3,21.4,00.0,30.5,23.7,17.0,0000.0,0022.52,0004.89,0003.16
2023-04-04 06:21:00,,0812.7,5.00,0.00,22.2,21.1,00.0,30.5,23.6,17.0,0000.0,0021.04,0004.80,0003.15
2023-04-04 06:22:00,,0812.6,5.00,0.00,22.2,20.8,00.0,30.5,23.5,17.1,0000.0,0020.39,0004.82,0003.15
2023-04-04 06:23:00,,0812.7,5.02,0.00,22.1,20.6,00.0,30.5,23.5,17.2,0000.0,0019.82,0004.81,0003.14
2023-04-04 06:24:00,,0812.7,5.00,0.00,22.1,20.5,00.0,30.5,23.4,17.3,0000.0,0020.03,0004.77,0003.12
2023-04-04 06:25:00,,0812.8,4.99,0.00,22.1,20.3,00.0,30.5,23.4,17.3,0000.0,0020.86,0004.75,0003.12
2023-04-04 06:26:00,,0812.7,5.00,0.00,22.0,20.3,00.0,30.5,23.4,17.4,0000.0,0020.79,0004.75,0003.11
2023-04-04 06:27:00,,0812.6,5.00,0.00,22.0,20.2,00.0,30.5,23.4,17.4,0000.0,0019.69,0004.75,0003.10
2023-04-04 06:28:00,,0812.6,5.00,0.00,22.0,20.1,00.0,30.5,23.3,17.3,0000.0,0019.33,0004.68,0003.08
2023-04-04 06:29:00,,0812.7,5.00,0.00,21.9,20.0,00.0,30.4,23.3,17.4,0000.0,0019.03,0004.54,0003.03
2023-04-04 06:30:00,,0812.7,5.02,0.00,22.0,20.3,00.0,30.4,23.5,17.4,0000.0,0018.48,0004.49,0002.99
2023-04-04 06:31:00,,0812.7,4.99,0.00,22.1,21.5,00.0,30.4,23.9,17.3,0000.0,0017.48,0004.44,0002.97
2023-04-04 06:32:00,,0812.8,5.00,0.00,22.2,22.6,00.0,30.4,24.3,17.1,0000.0,0016.82,0004.36,0002.95
2023-04-04 06:33:00,,0812.7,5.00,0.00,22.3,22.8,00.0,30.4,24.3,16.9,0000.0,0015.90,0004.32,0002.95
2023-04-04 06:34:00,,0812.6,5.00,0.00,22.3,22.4,00.0,30.5,24.0,16.8,0000.0,0016.10,0004.32,0002.95
2023-04-04 06:35:00,,0812.7,5.02,0.00,22.3,22.0,00.0,30.5,23.9,16.7,0000.0,0016.01,0004.32,0002.95
2023-04-04 06:36:00,,0812.6,5.00,0.00,22.3,21.6,00.0,30.6,23.7,16.8,0000.0,0015.09,0004.34,0002.94
2023-04-04 06:37:00,,0812.7,4.99,0.00,22.2,21.2,00.0,30.6,23.6,16.8,0000.0,0013.92,0004.33,0002.94
2023-04-04 06:38:00,,0812.7,5.01,0.00,22.2,20.9,00.0,30.6,23.6,16.8,0000.0,0014.28,0004.32,0002.95
2023-04-04 06:39:00,,0812.7,4.99,0.00,22.1,20.7,00.0,30.6,23.5,16.8,0000.0,0016.68,0004.34,0002.98
2023-04-04 06:40:00,,0812.6,5.01,0.00,22.1,20.4,00.0,30.5,23.4,16.8,0000.0,0017.62,0004.42,0003.02
2023-04-04 06:41:00,,0812.5,5.01,0.00,22.1,20.2,00.0,30.5,23.4,16.8,0000.0,0017.73,0004.44,0003.05
2023-04-04 06:42:00,,0812.5,4.99,0.00,22.0,20.0,00.0,30.5,23.2,16.8,0000.0,0017.28,0004.44,0003.08
2023-04-04 06:43:00,,0812.5,5.01,0.00,21.9,20.0,00.0,30.5,23.3,16.9,0000.0,0017.77,0004.45,0003.10
2023-04-04 06:44:00,,0812.5,4.99,0.00,22.0,21.2,00.0,30.4,23.8,16.9,0000.0,0018.85,0004.43,0003.08
2023-04-04 06:45:00,,0812.5,5.00,0.00,22.2,22.4,00.0,30.4,24.2,16.8,0000.0,0018.20,0004.39,0003.07
2023-04-04 06:46:00,,0812.5,5.00,0.00,22.3,22.9,00.0,30.5,24.3,16.7,0000.0,0018.51,0004.33,0003.07
2023-04-04 06:47:00,,0812.4,5.00,0.00,22.3,22.6,00.0,30.5,24.0,16.7,0000.0,0019.38,0004.32,0003.07
2023-04-04 06:48:00,,0812.4,5.00,0.00,22.3,22.2,00.0,30.6,23.9,16.6,0000.0,0021.49,0004.36,0003.08
2023-04-04 06:49:00,,0812.5,5.01,0.00,22.3,21.7,00.0,30.6,23.8,16.6,0000.0,0022.44,0004.36,0003.09
2023-04-04 06:50:00,,0812.5,5.00,0.00,22.3,21.3,00.0,30.6,23.7,16.6,0000.0,0020.44,0004.32,0003.07
2023-04-04 06:51:00,,0812.6,5.00,0.00,22.3,21.0,00.0,30.6,23.6,16.6,0000.0,0019.17,0004.31,0003.06
2023-04-04 06:52:00,,0812.6,5.00,0.00,22.2,20.7,00.0,30.6,23.6,16.7,0000.0,0019.56,0004.29,0003.05
2023-04-04 06:53:00,,0812.7,4.99,0.00,22.2,20.6,00.0,30.6,23.5,16.8,0000.0,0020.07,0004.31,0003.03
2023-04-04 06:54:00,,0812.7,5.02,0.00,22.2,20.4,00.0,30.6,23.5,16.9,0000.0,0020.18,0004.29,0003.00
2023-04-04 06:55:00,,0812.7,5.00,0.00,22.1,20.3,00.0,30.6,23.4,17.0,0000.0,0020.60,0004.29,0002.98
2023-04-04 06:56:00,,0812.7,5.00,0.00,22.1,20.2,00.0,30.5,23.3,17.0,0000.0,0021.53,0004.23,0002.97
2023-04-04 06:57:00,,0812.7,4.99,0.00,22.0,20.0,00.0,30.5,23.3,17.1,0000.0,0022.30,0004.20,0002.94
2023-04-04 06:58:00,,0812.7,5.00,0.00,22.0,20.1,00.0,30.5,23.4,17.3,0000.0,0021.26,0004.16,0002.90
2023-04-04 06:59:00,,0812.8,5.03,0.00,22.1,21.2,00.0,30.4,23.8,17.2,0000.0,0020.33,0004.07,0002.87
